Wind_Speed
11 10 10 11 10 9 8 8 8 8 9 8 8 9 9 9 9 9 9 9 9 9 9 10 10 10 9 9 9 8 7 8 7 7 7 8 8 8 7 7 7 6 6
12 12 11 11 10 9 8 8 8 8 8 8 8 9 9 9 9 9 9 9 10 10 9 9 9 9 9 8 8 7 8 8 7 7 8 8 8 7 7 6 6 6 6
12 12 11 10 10 9 9 8 7 8 8 8 8 8 8 8 9 9 9 9 9 9 9 9 8 8 7 7 7 6 7 7 7 8 9 8 8 8 7 7 6 6 6
12 12 12 11 10 9 8 7 8 8 8 8 8 8 8 7 8 8 8 9 9 9 9 8 8 7 7 6 7 7 7 7 7 8 8 8 8 8 7 7 6 6 6
12 12 11 11 9 9 8 7 7 6 7 8 7 7 7 7 7 7 8 9 9 9 8 7 7 8 7 7 7 8 8 7 7 7 8 7 7 8 7 6 6 6 6
13 12 12 11 10 9 9 7 7 6 6 6 7 6 7 8 7 7 8 9 8 8 8 8 7 7 7 7 7 7 7 7 8 8 7 7 7 7 6 5 5 6 6
12 12 12 11 11 10 8 7 7 7 7 7 7 7 7 7 8 8 8 8 8 9 9 8 7 7 8 8 8 7 7 7 8 7 7 6 6 5 5 5 5 5 5
12 12 12 11 11 10 9 8 7 7 7 7 7 7 7 7 8 9 9 9 9 8 7 8 7 8 8 8 8 7 7 7 7 7 6 6 5 5 5 5 5 5 4
12 12 12 11 12 11 10 9 8 7 7 7 6 6 7 7 7 8 8 8 8 8 7 7 7 7 7 7 7 7 7 7 6 6 6 5 5 5 4 4 4 4 4
12 11 11 12 12 11 10 10 8 8 7 6 6 5 6 7 7 7 7 7 7 7 7 7 7 7 7 6 6 6 6 6 5 5 5 5 4 4 4 4 4 3 3
12 12 12 12 11 11 10 10 9 7 7 7 6 6 6 6 7 6 6 6 7 7 7 7 7 6 6 6 6 5 5 5 5 5 4 4 4 3 3 3 3 3 3
12 12 11 11 11 10 10 9 9 8 7 6 6 6 6 6 6 6 6 6 6 6 5 5 5 5 5 4 4 4 4 4 4 4 4 3 3 3 3 3 3 3 4
12 12 11 11 10 10 9 9 8 8 7 6 6 6 6 6 6 6 6 6 5 5 4 4 4 4 4 4 3 3 3 4 4 3 3 3 3 3 3 3 3 3 3
13 12 12 11 11 10 9 8 8 8 7 7 7 7 7 6 6 6 5 5 5 5 5 5 4 3 3 3 3 3 3 3 3 3 3 2 2 2 2 2 2 1 2
14 13 12 11 10 10 10 9 9 8 8 7 6 6 6 5 5 5 5 5 5 4 4 4 4 3 3 3 3 2 2 2 2 2 2 2 2 2 1 1 1 1 1
13 13 12 11 11 10 10 9 9 8 8 7 7 6 6 5 5 5 5 5 4 4 3 3 3 4 3 3 2 2 2 2 2 2 2 2 2 1 1 0 0 0 0
14 12 12 12 12 11 10 9 9 8 8 8 7 7 6 5 4 4 4 3 3 3 3 3 3 3 3 2 2 2 1 2 2 2 1 1 1 1 1 1 2 2 1
14 13 12 11 11 11 11 10 10 9 8 7 7 7 6 5 4 4 4 4 4 3 3 3 3 2 2 2 1 1 1 1 1 1 1 1 2 2 2 2 3 3 3
13 13 13 11 11 11 11 10 10 9 8 7 7 7 6 5 5 4 3 3 3 3 3 3 3 3 2 2 1 0 0 0 1 2 2 2 3 3 3 3 4 4 4
12 13 13 12 12 12 10 10 10 9 8 8 7 7 6 5 5 5 4 3 3 3 3 3 3 3 2 2 1 0 1 2 2 3 3 4 4 5 5 5 5 5 6
12 12 12 12 11 11 11 10 10 10 9 8 7 6 6 5 5 4 4 3 3 3 3 3 3 3 2 1 1 1 2 2 3 4 5 5 6 6 6 6 6 7 7
11 11 11 11 11 12 11 9 9 9 8 7 6 5 5 5 5 5 4 3 3 3 3 3 3 3 3 2 2 2 3 4 4 5 5 6 7 7 8 7 8 8 8
10 10 10 10 10 11 10 9 8 7 7 6 5 5 5 5 4 4 4 4 4 4 3 3 3 3 3 2 2 3 3 4 5 6 6 7 7 8 9 8 8 8 9
10 10 10 9 9 9 9 8 8 7 7 6 5 5 5 5 4 4 5 5 5 5 3 3 3 3 3 3 3 3 4 5 6 7 7 8 8 8 8 8 9 9 10
9 9 9 9 9 8 7 7 7 7 7 6 5 5 5 5 5 5 5 5 5 5 4 4 4 4 5 5 4 5 5 5 6 7 7 8 8 8 9 9 10 11 12
7 8 8 9 9 8 7 7 6 6 6 6 5 5 5 5 5 5 5 6 5 5 5 5 6 6 6 6 6 6 6 6 7 7 8 8 9 9 10 10 11 12 13
Wind_Direction
64 66 69 73 72 72 75 76 81 83 86 92 98 99 101 98 98 104 106 105 107 113 116 115 114 113 116 115 112 113 116 123 124 120 117 125 124 123 123 121 115 122 126
63 67 70 68 65 70 74 80 89 90 91 95 102 103 102 101 99 99 103 101 106 114 114 114 113 118 118 117 114 113 119 124 118 111 113 120 122 122 121 120 118 121 127
62 67 69 67 67 69 73 80 89 94 92 93 99 103 102 102 99 100 102 102 110 117 114 115 115 115 109 107 110 117 121 121 117 110 107 109 117 118 120 124 124 125 129
58 62 67 68 68 66 70 80 90 90 91 95 96 96 96 104 105 101 101 106 114 118 116 114 114 114 107 104 109 107 111 127 121 108 104 103 109 112 118 124 124 126 129
54 56 59 62 66 67 70 71 73 88 94 94 92 93 94 94 97 103 102 106 111 116 116 114 116 109 101 100 102 102 107 116 113 103 100 100 103 107 113 116 120 121 130
54 56 57 58 61 63 64 63 63 76 89 95 87 87 92 91 94 102 105 105 109 113 109 110 112 104 102 100 100 100 105 108 104 102 100 98 101 105 108 110 114 114 123
56 57 56 55 57 59 59 61 65 76 90 93 93 93 91 91 93 99 105 101 100 102 104 104 101 101 106 102 102 104 106 105 102 103 103 100 100 104 110 113 115 117 120
57 59 58 56 56 57 58 59 70 80 87 95 99 96 94 95 96 101 103 100 100 105 100 97 102 106 102 100 100 100 98 98 103 102 101 101 102 103 107 115 120 125 130
55 59 59 57 56 55 57 61 73 76 79 85 89 88 85 92 98 104 104 104 103 99 96 97 99 100 103 103 100 95 93 94 95 99 98 96 96 98 107 117 127 132 138
52 56 58 59 57 55 54 62 71 73 76 80 85 88 91 92 98 102 104 100 102 100 98 97 102 103 102 103 102 100 96 92 91 94 94 90 91 96 106 118 130 138 148
53 54 57 58 56 54 53 59 69 76 80 81 82 90 95 96 101 104 102 97 97 96 96 97 98 97 96 95 96 94 90 92 90 90 90 87 89 92 104 115 126 139 149
53 52 54 55 54 52 49 51 62 71 77 77 78 84 91 94 101 102 100 98 94 93 95 97 97 97 93 94 92 91 87 87 85 83 85 85 87 91 100 101 102 122 142
51 51 51 51 52 51 48 48 54 64 73 80 80 79 81 88 95 92 93 90 86 87 95 100 104 99 94 92 87 89 85 87 88 77 79 80 89 96 100 96 97 111 142
51 53 52 51 51 51 51 52 55 60 71 78 78 78 82 85 88 88 87 87 88 91 97 95 92 98 98 90 87 89 82 86 82 67 77 82 91 96 98 97 97 116 156
49 51 53 53 50 53 55 56 57 60 68 73 78 83 90 95 95 92 89 87 86 95 97 91 84 88 94 93 94 95 90 79 64 68 75 77 80 87 87 84 92 96 117
47 48 51 50 50 53 56 59 62 64 69 73 80 84 88 97 98 92 93 87 86 93 94 87 76 80 89 99 106 107 93 87 64 66 66 67 67 67 61 91 157 135 82
45 47 48 47 46 50 53 60 65 69 71 72 78 84 83 88 95 88 87 88 89 95 87 69 67 73 72 84 123 123 99 85 72 61 54 45 34 29 348 284 272 278 278
40 42 47 46 47 49 53 59 63 65 65 69 76 79 74 72 80 84 86 84 77 76 66 49 49 58 51 48 114 166 111 84 35 353 330 330 329 318 309 288 272 267 269
38 38 42 44 44 46 50 53 55 56 57 70 74 69 65 67 75 77 79 75 62 45 36 44 38 32 31 32 57 112 175 308 337 315 296 297 300 299 299 295 280 271 274
35 38 38 41 44 48 52 53 53 53 59 66 69 66 65 64 69 71 74 68 51 31 17 22 16 10 10 13 45 88 270 283 292 295 293 292 293 291 290 287 281 275 276
32 34 36 37 39 43 47 50 53 54 57 59 58 59 62 62 66 65 57 50 38 19 3 355 359 348 343 340 329 266 269 272 277 285 291 293 295 293 289 287 278 276 274
30 29 32 34 37 39 41 46 48 48 51 53 54 60 64 60 56 47 34 14 8 358 345 341 336 336 336 330 305 279 275 279 284 284 289 291 289 290 296 291 282 277 273
25 26 27 30 33 35 34 38 42 44 43 47 51 53 51 44 37 29 21 9 359 351 348 347 338 342 335 332 312 292 283 278 285 291 291 292 291 290 290 289 286 283 277
20 22 22 23 25 28 29 32 35 35 33 35 38 36 30 29 27 12 7 5 5 6 3 357 359 351 339 337 327 315 303 292 290 295 296 294 292 293 292 291 290 288 281
11 15 17 17 16 17 18 20 23 25 25 23 23 21 18 17 15 4 357 356 358 3 359 348 345 346 339 326 316 312 309 302 296 297 295 294 291 296 293 287 285 286 282
351 358 3 3 5 7 9 9 9 9 7 7 5 359 357 351 349 352 348 343 339 340 338 334 328 326 326 322 311 305 303 303 299 295 295 294 292 294 292 290 287 286 284
Height
5885 5883 5882 5881 5881 5880 5880 5880 5880 5879 5879 5879 5879 5879 5879 5879 5878 5878 5878 5878 5878 5878 5879 5879 5880 5880 5880 5881 5881 5882 5882 5882 5882 5882 5883 5883 5884 5884 5884 5884 5884 5885 5885
5886 5885 5884 5883 5883 5882 5882 5881 5881 5881 5881 5881 5880 5880 5880 5880 5880 5880 5880 5880 5880 5879 5879 5880 5881 5881 5882 5882 5882 5882 5883 5882 5883 5883 5884 5884 5885 5885 5885 5885 5885 5885 5886
5888 5886 5886 5885 5884 5884 5883 5883 5883 5883 5883 5882 5882 5882 5881 5881 5881 5881 5881 5881 5881 5881 5881 5881 5882 5882 5883 5883 5883 5883 5884 5884 5884 5884 5885 5885 5885 5885 5886 5886 5886 5886 5886
5889 5888 5887 5886 5886 5885 5885 5884 5884 5884 5884 5884 5883 5883 5883 5883 5882 5882 5882 5882 5882 5882 5883 5883 5883 5883 5884 5884 5884 5884 5885 5884 5885 5885 5886 5886 5886 5886 5886 5886 5886 5886 5886
5891 5890 5889 5888 5888 5887 5886 5886 5886 5886 5885 5885 5885 5885 5884 5884 5884 5884 5883 5883 5883 5884 5884 5884 5884 5885 5885 5885 5885 5885 5886 5885 5886 5887 5887 5887 5887 5887 5887 5887 5887 5887 5887
5893 5892 5891 5890 5889 5889 5888 5887 5887 5887 5887 5886 5886 5886 5886 5885 5885 5885 5885 5885 5885 5885 5885 5886 5886 5886 5886 5886 5886 5887 5887 5887 5887 5887 5888 5888 5888 5888 5888 5888 5888 5888 5888
5894 5893 5892 5892 5891 5890 5889 5889 5888 5888 5888 5888 5887 5887 5887 5887 5887 5886 5887 5886 5886 5886 5887 5888 5888 5887 5888 5888 5888 5888 5888 5888 5888 5888 5889 5889 5888 5888 5888 5889 5888 5888 5888
5896 5895 5894 5893 5892 5891 5891 5890 5889 5889 5889 5889 5889 5888 5889 5889 5888 5888 5888 5888 5888 5888 5888 5889 5889 5889 5889 5889 5889 5889 5889 5889 5889 5889 5890 5889 5889 5889 5889 5889 5889 5889 5889
5898 5897 5896 5895 5894 5893 5892 5891 5890 5890 5890 5890 5890 5890 5890 5890 5889 5889 5889 5889 5889 5889 5890 5890 5890 5890 5890 5890 5890 5890 5890 5890 5890 5890 5890 5890 5890 5889 5889 5890 5890 5889 5890
5900 5899 5898 5897 5896 5895 5894 5892 5892 5892 5891 5891 5891 5891 5891 5891 5891 5891 5891 5891 5891 5891 5891 5891 5892 5891 5891 5891 5891 5891 5891 5891 5891 5891 5891 5890 5890 5890 5890 5890 5890 5890 5890
5901 5900 5899 5898 5898 5897 5896 5894 5893 5893 5892 5892 5892 5892 5892 5892 5892 5892 5892 5892 5892 5892 5893 5893 5893 5892 5892 5892 5892 5892 5892 5892 5892 5891 5891 5891 5891 5891 5891 5890 5890 5890 5890
5903 5902 5900 5900 5899 5898 5897 5896 5895 5894 5894 5893 5893 5893 5893 5893 5893 5894 5894 5894 5894 5894 5894 5894 5894 5894 5893 5893 5893 5893 5893 5892 5892 5892 5892 5892 5891 5891 5891 5891 5890 5890 5890
5906 5904 5903 5901 5901 5900 5899 5898 5896 5896 5895 5895 5895 5895 5895 5895 5895 5895 5895 5895 5895 5895 5895 5895 5895 5895 5894 5894 5894 5894 5894 5893 5893 5893 5893 5892 5892 5892 5891 5891 5891 5890 5890
5908 5906 5905 5903 5902 5901 5900 5899 5898 5897 5896 5896 5896 5896 5896 5896 5896 5896 5896 5896 5896 5896 5896 5896 5896 5895 5895 5895 5895 5894 5894 5894 5894 5893 5893 5893 5892 5892 5892 5891 5891 5890 5890
5909 5908 5906 5905 5904 5903 5902 5901 5900 5899 5898 5898 5897 5897 5897 5897 5897 5897 5897 5897 5897 5897 5897 5896 5896 5896 5896 5896 5895 5895 5895 5895 5894 5894 5894 5893 5893 5893 5892 5892 5891 5891 5890
5910 5909 5907 5906 5905 5904 5903 5902 5901 5900 5899 5899 5899 5899 5898 5898 5898 5898 5898 5898 5898 5897 5897 5897 5897 5897 5897 5896 5896 5896 5895 5895 5895 5895 5894 5894 5893 5893 5892 5892 5891 5891 5890
5912 5910 5909 5907 5906 5905 5904 5903 5902 5902 5901 5900 5900 5900 5900 5899 5899 5899 5899 5899 5898 5898 5898 5898 5897 5897 5897 5896 5896 5896 5896 5896 5895 5895 5894 5894 5893 5893 5892 5892 5891 5891 5890
5914 5912 5910 5909 5908 5906 5905 5904 5903 5903 5902 5902 5901 5901 5901 5900 5900 5899 5899 5899 5899 5899 5898 5898 5898 5897 5897 5896 5896 5896 5896 5896 5895 5895 5894 5894 5893 5892 5892 5891 5890 5890 5889
5916 5914 5912 5910 5909 5907 5906 5905 5904 5904 5903 5902 5902 5902 5901 5901 5900 5900 5900 5900 5899 5899 5899 5898 5898 5897 5896 5896 5896 5896 5896 5895 5895 5895 5894 5893 5893 5892 5891 5890 5889 5889 5889
5917 5915 5914 5912 5910 5908 5907 5906 5906 5905 5904 5904 5903 5903 5902 5902 5901 5901 5900 5900 5900 5899 5899 5898 5898 5897 5896 5896 5895 5895 5895 5895 5894 5894 5893 5893 5892 5891 5890 5889 5888 5888 5887
5919 5917 5916 5914 5912 5910 5909 5908 5907 5906 5906 5905 5904 5903 5903 5902 5901 5901 5901 5900 5900 5899 5898 5898 5897 5897 5896 5895 5895 5895 5894 5894 5894 5893 5892 5891 5891 5889 5888 5888 5887 5886 5885
5920 5918 5917 5915 5913 5912 5910 5909 5908 5907 5907 5906 5905 5904 5903 5903 5902 5901 5901 5900 5900 5899 5898 5897 5897 5896 5895 5894 5894 5894 5893 5893 5892 5892 5891 5890 5889 5887 5887 5886 5885 5884 5883
5921 5920 5918 5916 5915 5913 5912 5911 5909 5908 5908 5907 5906 5905 5904 5903 5902 5902 5901 5900 5899 5898 5898 5897 5896 5895 5894 5894 5893 5893 5892 5891 5891 5890 5889 5888 5887 5886 5885 5884 5883 5882 5881
5922 5921 5919 5917 5916 5915 5913 5912 5911 5909 5908 5907 5906 5906 5905 5903 5902 5902 5901 5900 5899 5898 5897 5896 5896 5894 5894 5893 5892 5891 5891 5890 5889 5888 5888 5886 5885 5884 5883 5882 5881 5880 5879
5923 5921 5920 5918 5917 5915 5914 5913 5911 5910 5909 5908 5907 5906 5905 5904 5902 5901 5900 5899 5899 5898 5897 5896 5895 5894 5893 5892 5891 5890 5889 5888 5887 5886 5885 5884 5883 5882 5881 5879 5878 5877 5876
5923 5922 5920 5919 5917 5915 5914 5913 5911 5910 5909 5908 5907 5906 5904 5903 5902 5901 5900 5899 5898 5897 5896 5895 5894 5893 5891 5891 5889 5888 5887 5886 5885 5884 5883 5882 5881 5880 5878 5877 5876 5875 5873